Date String (YYYY-MM-DD hh:mm:ss) UTC,Instrument flags,Ambient pressure (hPa),Sample flow (lpm),Bypass flow (lpm),Sample temperature (°C),Ambient temperature (°C),ASC tube jacket temperature (°C),LED temperature (°C),Box temperature (°C),Sample RH (%),Span deviation,Mass concentration (μg/m³),Mass concentration (μg/m³),Mass concentration (μg/m³)
DateTimeUTC,F1_M11,P_M11,Q1_M11,Q2_M11,T1_M11,T2_M11,T3_M11,T4_M11,T5_M11,U1_M11,ZSPAN_M11,X2_M11,X0_M11,X1_M11
2022-09-04 15:00:00,,0831.6,5.01,0.00,30.1,27.8,00.0,38.9,31.8,25.2,0000.0,0007.31,0016.63,0006.21
2022-09-04 15:01:00,,0831.6,5.01,0.00,30.1,28.1,00.0,38.9,31.8,24.8,0000.0,0007.27,0016.89,0006.21
2022-09-04 15:02:00,,0831.6,4.99,0.00,30.1,28.3,00.0,38.9,31.9,25.7,0000.0,0007.23,0015.76,0006.21
2022-09-04 15:03:00,,0831.6,5.00,0.00,30.1,28.5,00.0,38.9,31.9,25.9,0000.0,0007.22,0015.55,0006.18
2022-09-04 15:04:00,,0831.6,5.00,0.00,30.1,28.6,00.0,38.9,31.9,25.9,0000.0,0007.22,0015.74,0006.14
2022-09-04 15:05:00,,0831.6,5.01,0.00,30.1,28.8,00.0,38.9,31.9,25.7,0000.0,0007.19,0017.52,0006.12
2022-09-04 15:06:00,,0831.6,5.01,0.00,30.1,28.8,00.0,38.9,32.0,25.6,0000.0,0007.18,0018.00,0006.11
2022-09-04 15:07:00,,0831.6,5.00,0.00,30.1,28.9,00.0,38.9,32.0,25.4,0000.0,0007.17,0018.69,0006.08
2022-09-04 15:08:00,,0831.5,4.98,0.00,30.2,29.0,00.0,38.9,32.0,25.8,0000.0,0007.13,0018.93,0006.05
2022-09-04 15:09:00,,0831.5,5.01,0.00,30.2,29.1,00.0,38.9,32.1,25.8,0000.0,0007.07,0017.84,0006.03
2022-09-04 15:10:00,,0831.5,5.01,0.00,30.2,29.2,00.0,38.9,32.1,26.1,0000.0,0007.09,0017.87,0006.02
2022-09-04 15:11:00,,0831.5,4.99,0.00,30.2,29.2,00.0,38.9,32.1,26.3,0000.0,0007.09,0017.79,0006.02
2022-09-04 15:12:00,,0831.5,5.00,0.00,30.3,29.1,00.0,39.0,32.1,26.4,0000.0,0007.14,0017.61,0006.01
2022-09-04 15:13:00,,0831.5,5.00,0.00,30.3,28.0,00.0,39.0,32.0,26.4,0000.0,0007.14,0017.24,0005.99
2022-09-04 15:14:00,,0831.5,4.99,0.00,30.2,27.1,00.0,38.9,31.9,25.9,0000.0,0007.13,0017.11,0005.99
2022-09-04 15:15:00,,0831.5,5.00,0.00,30.2,27.2,00.0,38.9,31.9,26.1,0000.0,0007.13,0017.46,0006.00
2022-09-04 15:16:00,,0831.5,5.00,0.00,30.1,27.4,00.0,38.8,31.8,26.6,0000.0,0007.14,0016.54,0006.00
2022-09-04 15:17:00,,0831.5,5.00,0.00,30.1,27.7,00.0,38.8,31.7,26.5,0000.0,0007.20,0015.61,0005.99
2022-09-04 15:18:00,,0831.5,5.01,0.00,30.0,28.0,00.0,38.8,31.8,26.5,0000.0,0007.16,0015.34,0005.97
2022-09-04 15:19:00,,0831.5,5.00,0.00,30.0,28.3,00.0,38.8,31.8,26.5,0000.0,0007.19,0014.93,0005.96
2022-09-04 15:20:00,,0831.5,5.00,0.00,30.0,28.5,00.0,38.8,31.9,26.3,0000.0,0007.20,0015.02,0005.95
2022-09-04 15:21:00,,0831.5,5.00,0.00,30.1,28.6,00.0,38.8,31.9,26.5,0000.0,0007.22,0014.81,0005.95
2022-09-04 15:22:00,,0831.5,5.00,0.00,30.1,28.7,00.0,38.8,31.9,26.6,0000.0,0007.23,0015.14,0005.95
2022-09-04 15:23:00,,0831.5,5.00,0.00,30.1,28.9,00.0,38.8,31.9,26.7,0000.0,0007.20,0015.11,0005.95
2022-09-04 15:24:00,,0831.5,5.00,0.00,30.1,29.0,00.0,38.8,32.0,26.6,0000.0,0007.20,0015.04,0005.94
2022-09-04 15:25:00,,0831.5,5.00,0.00,30.1,29.0,00.0,38.9,32.0,26.4,0000.0,0007.24,0015.30,0005.94
2022-09-04 15:26:00,,0831.5,4.98,0.00,30.2,29.1,00.0,38.9,32.0,26.6,0000.0,0007.28,0015.77,0005.94
2022-09-04 15:27:00,,0831.5,5.01,0.00,30.2,29.2,00.0,38.9,32.1,26.3,0000.0,0007.33,0016.04,0005.95
2022-09-04 15:28:00,,0831.5,4.99,0.00,30.2,28.6,00.0,38.9,32.1,25.9,0000.0,0007.31,0015.36,0005.96
2022-09-04 15:29:00,,0831.5,5.01,0.00,30.2,27.4,00.0,38.9,31.9,26.0,0000.0,0007.36,0014.94,0005.98
2022-09-04 15:30:00,,0831.5,4.97,0.00,30.1,27.1,00.0,38.9,31.9,25.7,0000.0,0007.37,0014.95,0005.99
2022-09-04 15:31:00,,0831.5,5.01,0.00,30.1,27.3,00.0,38.8,31.9,25.5,0000.0,0007.38,0015.03,0006.00
2022-09-04 15:32:00,,0831.4,5.00,0.00,30.0,27.6,00.0,38.8,31.7,25.8,0000.0,0007.40,0015.49,0006.02
2022-09-04 15:33:00,,0831.5,4.99,0.00,30.0,27.9,00.0,38.8,31.7,25.8,0000.0,0007.37,0015.92,0006.03
2022-09-04 15:34:00,,0831.5,5.00,0.00,30.0,28.1,00.0,38.8,31.7,25.7,0000.0,0007.39,0016.09,0006.04
2022-09-04 15:35:00,,0831.5,5.00,0.00,30.0,28.4,00.0,38.8,31.8,25.4,0000.0,0007.45,0016.50,0006.07
2022-09-04 15:36:00,,0831.5,5.01,0.00,30.0,28.5,00.0,38.8,31.8,25.1,0000.0,0007.42,0016.76,0006.10
2022-09-04 15:37:00,,0831.5,5.01,0.00,30.0,28.7,00.0,38.8,31.9,25.2,0000.0,0007.40,0016.82,0006.12
2022-09-04 15:38:00,,0831.5,4.99,0.00,30.0,28.8,00.0,38.8,31.9,25.6,0000.0,0007.38,0015.96,0006.15
2022-09-04 15:39:00,,0831.5,5.00,0.00,30.1,28.9,00.0,38.8,31.9,25.2,0000.0,0007.38,0015.40,0006.18
2022-09-04 15:40:00,,0831.5,5.00,0.00,30.1,29.0,00.0,38.8,32.0,25.3,0000.0,0007.38,0015.98,0006.23
2022-09-04 15:41:00,,0831.5,4.99,0.00,30.1,29.1,00.0,38.8,32.0,25.3,0000.0,0007.39,0016.75,0006.26
2022-09-04 15:42:00,,0831.5,5.01,0.00,30.2,29.1,00.0,38.8,32.1,25.5,0000.0,0007.38,0017.88,0006.29
2022-09-04 15:43:00,,0831.5,4.98,0.00,30.2,28.4,00.0,38.9,32.0,25.2,0000.0,0007.35,0018.10,0006.33
2022-09-04 15:44:00,,0831.5,5.00,0.00,30.1,27.2,00.0,38.8,31.9,24.9,0000.0,0007.34,0017.69,0006.36
2022-09-04 15:45:00,,0831.5,5.01,0.00,30.1,27.0,00.0,38.8,31.9,24.8,0000.0,0007.31,0017.20,0006.39
2022-09-04 15:46:00,,0831.5,5.00,0.00,30.0,27.3,00.0,38.8,31.8,25.5,0000.0,0007.24,0016.59,0006.41
2022-09-04 15:47:00,,0831.5,5.00,0.00,30.0,27.6,00.0,38.7,31.7,25.8,0000.0,0007.25,0016.48,0006.44
2022-09-04 15:48:00,,0831.5,4.99,0.00,30.0,27.9,00.0,38.7,31.7,26.0,0000.0,0007.26,0015.73,0006.46
2022-09-04 15:49:00,,0831.5,5.01,0.00,30.0,28.2,00.0,38.7,31.8,25.9,0000.0,0007.28,0016.13,0006.45
2022-09-04 15:50:00,,0831.5,5.00,0.00,30.0,28.4,00.0,38.7,31.7,27.0,0000.0,0007.28,0016.21,0006.45
2022-09-04 15:51:00,,0831.5,5.01,0.00,30.0,28.5,00.0,38.7,31.8,27.3,0000.0,0007.29,0016.08,0006.42
2022-09-04 15:52:00,,0831.4,5.01,0.00,30.0,28.7,00.0,38.7,31.9,27.2,0000.0,0007.27,0015.99,0006.41
2022-09-04 15:53:00,,0831.5,4.99,0.00,30.0,28.8,00.0,38.7,31.9,26.8,0000.0,0007.24,0015.67,0006.40
2022-09-04 15:54:00,,0831.5,5.01,0.00,30.0,28.9,00.0,38.8,31.9,26.1,0000.0,0007.22,0015.00,0006.38
2022-09-04 15:55:00,,0831.4,5.00,0.00,30.1,29.0,00.0,38.8,32.0,25.5,0000.0,0007.23,0014.47,0006.37
2022-09-04 15:56:00,,0831.5,4.99,0.00,30.1,29.1,00.0,38.8,32.0,25.1,0000.0,0007.23,0014.92,0006.34
2022-09-04 15:57:00,,0831.4,5.01,0.00,30.1,28.8,00.0,38.8,32.0,25.4,0000.0,0007.26,0015.71,0006.32
2022-09-04 15:58:00,,0831.5,4.98,0.00,30.1,27.7,00.0,38.8,31.8,24.9,0000.0,0007.24,0016.49,0006.30
2022-09-04 15:59:00,,0831.5,5.02,0.00,30.0,26.9,00.0,38.8,31.7,24.8,0000.0,0007.25,0017.44,0006.30
